Location: �quirre
(50.4736°N, 2.2351°E)
Time: 15:48:53
(UTC+00:00)

CSL-04 DEB - Pass Details

Date: 07 August 2020
Orbit: 546 x 627 km, 98.7° (Epoch: 25 September)

Event Time Altitude Azimuth Distance (km) Brightness Sun altitude
Rises 03:05:15 0° 163° (SSE) 2,707 7.6 -11.5°
Reaches altitude 10° 03:07:21 10° 164° (SSE) 1,815 6.7 -11.3°
Maximum altitude 03:11:16 88° 251° (WSW) 555 4.3 -10.8°
Drops below altitude 10° 03:15:14 10° 344° (NNW) 1,837 7.3 -10.3°
Sets 03:17:22 0° 345° (NNW) 2,742 8.3 -10.1°
